Location: Cutler
(25.6150°N, 80.3110°W)
Time: 00:41:01
(UTC-05:00)

Tiangong 1 - Pass Details

Date: 15 November 2017
Orbit: 283 x 307 km, 42.8° (Epoch: 23 November)

Event Time Altitude Azimuth Distance (km) Brightness Sun altitude
Exits shadow 05:12:13 27° 50° (NE) 583 2.3 -19.6°
Drops below altitude 10° 05:14:09 10° 98° (E) 1,129 4.7 -19.2°
Sets 05:16:13 0° 110° (ESE) 1,951 6.3 -18.8°
